Theta_e
314 318 320 321 321 320 317 316 319 321 322 325 326 327 325 323 323 322 324 317 310 313 319 316 315 315 314 314 312 310 310 309 309 309 309 310 310 310 311 312 312 311 311 312 311 311 311 311 311 311 311 311 311 311 311 313 314 312 313 316 317 319 321 323 323 322 321 321 321 323 325 324 322 322 324 324 322 323 323 321 320 319 318 317 318 318
314 318 320 321 319 316 317 316 317 320 320 320 322 322 322 323 322 319 319 317 311 313 321 318 315 314 313 313 311 309 309 309 309 309 309 310 310 311 311 311 312 311 311 311 311 311 311 311 311 311 311 310 311 311 311 313 313 314 315 315 316 319 319 319 320 321 322 323 322 322 324 323 321 322 324 324 323 323 321 319 318 318 317 315 316 317
317 319 318 316 314 314 316 315 315 317 317 317 319 319 320 322 321 320 320 316 312 314 321 322 317 315 314 313 311 308 308 311 311 311 312 312 311 311 311 311 311 311 311 311 311 311 311 310 311 311 311 310 311 311 311 312 312 315 317 316 317 319 319 319 321 322 322 323 323 322 322 321 320 321 323 323 322 321 319 319 318 317 316 315 315 317
321 323 319 312 312 315 318 316 315 315 316 318 319 319 321 321 320 324 324 316 314 315 318 321 317 314 314 315 313 310 309 310 311 312 312 312 312 311 312 312 311 312 312 311 311 311 310 310 311 311 311 311 310 311 311 311 312 315 317 318 318 318 319 321 322 321 321 321 322 322 321 321 320 320 322 322 321 319 318 318 317 316 315 315 316 316
322 322 314 310 314 317 318 318 317 317 319 321 320 318 321 321 320 322 323 319 321 321 318 318 319 320 320 317 315 314 311 310 311 312 312 311 311 311 311 311 311 312 312 311 311 311 311 310 311 311 310 311 310 310 311 311 313 315 316 318 319 319 319 321 321 320 321 322 322 322 320 320 321 320 320 320 319 318 317 317 315 314 315 315 315 314
319 315 313 316 316 316 319 320 320 321 322 323 322 320 318 321 321 319 320 320 324 328 320 317 323 330 329 322 318 318 316 315 312 310 310 312 311 310 310 310 311 311 311 312 311 311 311 310 311 311 310 311 310 310 311 311 313 314 316 317 318 320 320 320 321 320 322 323 322 321 319 320 320 319 319 318 318 317 316 315 313 314 315 315 313 311
317 313 317 323 318 317 320 319 321 321 320 323 325 322 318 318 319 319 320 320 325 329 319 317 326 328 325 324 323 323 323 322 317 311 310 312 312 310 311 311 311 311 310 311 311 311 311 310 311 311 311 311 309 310 311 313 315 314 316 318 316 319 322 321 320 319 320 323 321 320 319 319 319 318 317 316 316 316 314 313 312 313 313 311 308 306
318 316 318 322 321 320 319 319 322 319 320 326 324 322 320 318 319 319 320 321 325 324 318 321 327 325 322 323 325 326 326 326 323 319 313 311 311 311 312 311 311 311 311 310 310 310 310 311 311 311 311 311 309 310 311 313 316 314 316 319 317 318 321 321 320 319 320 321 320 320 319 318 317 316 316 315 314 313 312 312 311 310 308 304 302 301
317 320 320 320 321 321 320 324 323 317 322 325 319 318 321 320 321 321 321 322 322 322 322 322 322 324 325 321 320 322 323 324 323 322 318 313 312 312 312 312 311 310 310 310 310 311 311 311 311 310 311 310 309 311 311 312 316 316 315 318 319 319 320 318 317 319 320 319 319 319 318 316 315 315 314 314 313 312 311 310 308 305 302 300 299 299
316 318 317 318 321 321 324 326 321 319 322 317 314 318 321 321 323 324 325 324 324 324 324 324 321 324 327 324 323 321 321 325 323 321 319 314 313 314 313 313 311 310 310 310 310 310 311 311 311 310 310 310 309 311 312 311 314 316 315 316 318 319 318 316 316 317 318 318 317 316 315 314 312 313 313 312 311 310 309 307 304 301 300 299 298 298
315 313 313 316 319 317 320 318 312 316 316 312 318 326 326 326 327 328 327 324 325 326 325 326 323 323 327 326 325 323 323 327 324 323 323 316 313 314 314 314 312 311 310 309 309 310 310 310 310 310 310 310 309 310 311 311 312 315 317 317 318 317 316 316 317 317 316 316 316 315 314 313 312 312 311 310 309 307 305 303 301 299 299 298 298 298
316 316 315 315 315 313 317 317 312 312 311 316 330 331 326 329 327 327 327 325 327 328 324 322 320 321 325 325 325 323 322 323 321 323 327 321 315 314 314 314 313 312 310 309 309 309 310 309 309 309 310 309 309 310 310 311 312 314 317 317 318 318 317 317 317 317 316 316 315 314 313 312 312 310 308 307 305 304 303 301 300 299 298 298 298 298
319 321 317 314 313 314 320 323 317 314 314 320 330 327 325 328 327 327 327 325 326 324 319 317 318 320 322 323 323 321 320 320 317 315 318 316 313 314 314 313 313 312 311 310 309 309 309 309 309 309 310 309 309 309 310 311 312 314 316 317 317 317 316 316 316 315 314 314 313 312 311 311 310 308 306 305 303 303 301 300 300 300 299 299 298 298
323 322 317 316 316 315 320 323 321 320 318 320 323 324 327 327 326 328 327 325 326 323 317 314 318 321 323 323 323 321 318 317 314 313 313 313 313 314 313 312 313 312 311 310 309 310 310 309 309 309 310 309 309 309 309 310 312 314 316 317 316 315 314 314 314 313 312 311 311 311 310 309 308 306 304 303 302 302 301 300 300 300 300 299 299 298
324 324 321 319 318 317 318 319 322 323 319 318 322 323 325 327 328 330 328 327 328 325 318 314 319 325 327 327 322 316 312 311 312 313 313 312 312 312 311 311 311 311 310 310 309 310 310 310 310 309 310 310 309 309 309 309 312 313 315 316 315 314 313 312 312 312 311 310 310 309 308 307 306 304 303 302 301 301 301 300 299 299 299 298 298 298
322 326 324 317 315 316 317 316 318 322 320 319 321 322 324 325 327 327 324 322 323 324 321 317 320 324 326 324 317 312 311 311 310 310 310 311 311 310 310 310 310 310 310 309 309 310 310 309 310 309 310 310 309 310 309 309 312 312 313 314 314 314 313 311 312 312 310 309 308 307 306 305 304 303 302 301 300 300 300 299 299 298 298 298 298 298
323 327 320 313 314 314 315 315 315 318 322 319 318 321 321 320 322 324 322 317 318 323 323 320 322 324 323 322 318 316 317 315 313 310 309 309 310 309 309 310 310 310 310 310 309 309 309 309 309 309 309 309 309 310 309 309 311 310 310 311 313 314 312 311 311 311 310 308 306 305 305 304 303 302 301 300 300 299 299 298 298 298 298 298 298 298
325 327 318 314 318 314 310 314 313 312 317 321 322 321 318 318 323 326 325 323 322 324 324 322 323 324 323 324 324 320 320 322 323 317 310 307 308 308 308 310 310 310 310 309 309 309 309 309 309 309 309 309 309 310 309 309 309 308 309 311 314 314 311 310 310 310 309 306 305 304 304 303 302 301 300 300 299 299 298 298 297 297 298 298 297 297
322 326 321 314 317 314 310 315 317 312 312 318 321 318 319 325 326 324 325 326 326 326 326 323 321 320 320 323 324 321 322 326 326 324 320 313 307 306 308 309 309 309 309 309 309 309 309 309 309 309 309 309 309 310 310 309 308 308 309 312 314 313 310 310 311 310 307 305 304 304 303 302 301 300 299 299 299 298 298 297 297 297 297 297 297 297
321 323 324 314 312 314 314 317 321 318 313 313 316 315 318 324 324 323 324 325 326 327 327 325 323 322 321 322 324 322 321 323 324 328 330 318 307 307 309 309 310 310 310 309 309 309 309 309 309 309 309 309 309 309 310 309 308 308 309 311 312 312 311 311 311 309 306 304 304 303 303 302 300 299 298 298 298 298 298 297 297 297 297 297 297 296
320 321 323 316 310 314 318 319 319 320 316 316 318 318 318 319 319 322 322 322 325 327 327 326 325 324 324 322 322 323 324 326 325 328 327 314 307 309 310 309 311 310 310 310 309 308 309 308 308 308 308 308 309 309 309 310 309 308 308 309 310 310 311 311 310 308 305 304 303 303 302 301 299 298 298 298 298 297 297 297 297 297 297 296 296 296
321 321 324 320 314 317 321 318 315 317 318 317 318 319 318 318 319 322 322 321 322 323 325 326 324 324 327 323 320 323 328 326 319 317 316 310 307 309 309 310 311 311 311 310 309 308 308 308 308 308 308 308 308 309 309 310 310 308 308 309 309 310 311 311 309 307 305 304 303 302 302 300 299 298 297 297 297 297 296 296 296 296 296 296 296 295
320 323 324 321 317 317 318 314 309 311 316 316 317 320 319 317 319 323 324 322 321 321 321 322 322 323 323 322 321 320 319 313 308 306 307 308 309 309 309 310 310 310 310 310 309 309 308 308 307 307 307 307 307 308 309 310 310 310 308 308 309 310 311 312 310 307 305 304 303 302 301 300 298 297 297 297 297 296 296 296 296 296 296 295 295 295
318 322 323 322 319 317 317 314 309 310 314 315 317 320 319 318 318 321 323 322 321 322 320 320 323 321 319 319 314 307 305 304 305 306 307 309 311 310 309 309 309 310 310 308 308 308 307 307 307 307 307 307 306 307 308 309 310 310 310 309 309 310 311 312 311 308 305 304 303 302 301 300 298 297 297 297 297 296 296 295 295 295 295 295 295 295
319 323 323 324 324 322 321 319 315 312 314 316 319 319 317 318 319 319 321 320 321 322 320 321 324 321 320 320 311 306 309 308 307 307 309 311 312 311 309 309 308 309 309 309 307 307 307 307 307 307 307 307 306 306 307 309 310 310 311 310 310 311 312 312 311 308 305 304 303 302 302 300 299 298 297 297 297 296 295 295 295 295 294 294 294 294
321 323 322 322 325 325 324 323 321 317 314 316 319 317 316 317 318 319 320 319 321 322 320 322 323 319 319 319 315 314 318 317 312 309 310 312 313 312 312 310 309 308 309 309 308 307 307 307 307 307 307 306 306 306 306 308 309 310 311 311 311 312 312 312 311 308 306 304 303 302 301 300 299 298 297 297 296 296 295 294 294 294 294 294 294 294
322 323 321 321 324 324 324 325 322 319 316 316 318 317 316 316 317 318 319 320 321 321 320 320 321 320 320 319 318 317 318 322 320 312 310 314 314 314 314 313 310 308 308 308 308 307 307 307 307 307 307 306 306 306 306 307 308 310 311 311 312 312 312 312 311 308 306 304 303 302 301 300 300 298 297 296 296 295 295 294 294 294 294 294 294 294
321 321 320 322 322 321 324 325 321 319 318 318 318 317 316 316 316 317 319 320 321 322 322 321 320 321 321 319 320 320 320 323 320 311 311 316 316 314 314 313 310 308 307 307 307 307 307 307 307 307 307 306 306 305 305 306 307 309 310 311 311 311 311 312 310 308 306 304 303 302 301 301 300 298 297 296 295 295 294 294 293 293 293 293 293 293
320 320 319 321 322 321 323 323 320 319 319 318 318 317 316 316 315 316 318 319 320 321 322 322 321 321 320 318 319 319 318 318 317 312 313 315 314 314 313 312 311 309 308 307 307 308 308 307 307 307 306 305 305 305 305 305 306 308 309 311 311 311 311 311 310 308 306 305 304 302 301 301 299 298 297 296 295 294 294 293 293 293 293 293 293 293
317 320 320 321 321 321 322 320 318 318 319 318 317 317 317 316 315 316 317 317 319 320 320 321 322 321 319 319 320 318 315 315 314 313 313 314 313 314 313 312 311 310 309 309 308 308 307 306 305 305 305 305 306 305 305 306 306 306 308 310 310 311 311 310 309 308 306 305 304 303 302 301 299 298 297 296 295 294 294 293 293 292 292 292 292 292
316 320 320 319 320 320 320 318 316 317 318 318 318 317 317 316 315 315 316 316 317 318 318 319 320 319 318 318 318 314 312 313 312 310 311 312 313 313 312 312 312 311 311 310 308 307 306 304 304 304 305 306 307 307 306 306 306 306 307 308 309 309 309 309 308 307 306 305 304 303 302 301 300 298 297 296 296 294 293 293 292 292 292 292 292 292
315 318 318 318 320 321 320 319 315 314 316 317 318 317 316 315 315 315 315 316 316 317 318 318 319 319 318 319 316 311 310 310 308 308 309 311 312 312 312 314 313 312 312 310 308 306 305 305 305 306 306 307 307 307 307 306 306 306 306 307 307 307 308 307 307 306 306 305 304 304 303 302 300 299 298 297 296 295 294 293 292 292 292 291 291 291
316 318 318 319 321 321 321 319 315 314 316 318 318 318 316 315 315 315 315 315 315 316 317 318 318 317 318 319 317 316 315 310 307 308 310 311 311 312 312 313 313 313 312 309 307 306 306 306 307 307 307 307 306 307 307 307 306 306 306 306 306 306 306 306 306 306 305 305 304 304 303 302 301 300 299 298 297 295 294 293 292 292 291 291 291 291
315 317 318 318 321 322 320 317 316 317 320 320 320 320 318 315 314 315 315 315 315 315 316 317 318 317 318 319 318 317 316 313 310 311 313 312 312 313 312 312 312 311 310 309 307 307 307 307 307 307 306 306 307 307 306 306 306 306 306 305 305 305 305 305 305 305 304 304 304 303 303 302 301 300 299 298 297 296 294 293 292 291 291 291 291 291
315 316 317 317 319 319 317 316 318 321 321 319 319 319 318 315 314 315 315 315 314 314 315 316 316 317 316 314 313 312 313 313 313 313 313 313 313 313 313 313 312 311 309 308 308 308 307 307 307 307 307 307 307 307 306 307 306 306 305 305 304 304 304 304 303 303 303 303 303 303 302 302 301 300 299 298 297 296 294 293 292 291 291 291 291 291
314 314 315 316 316 316 315 317 321 321 318 317 315 313 314 315 315 315 315 315 314 314 314 315 315 315 314 310 309 310 310 310 310 309 310 312 312 312 312 312 311 309 308 308 309 309 309 309 309 309 309 308 308 307 307 307 307 306 306 305 304 304 304 303 303 303 303 302 302 301 301 301 300 300 299 298 296 295 294 293 292 291 291 291 291 290
315 314 314 315 316 315 316 317 319 318 317 318 316 311 312 315 315 315 317 317 315 313 313 313 314 314 314 310 309 309 308 308 309 309 309 311 312 311 310 311 310 309 309 310 310 309 309 309 309 309 308 308 308 308 308 307 306 306 305 305 305 304 303 303 303 303 303 302 301 301 300 299 299 298 298 297 296 295 295 294 293 292 291 291 290 290
314 314 314 316 316 315 316 317 317 318 320 320 316 312 311 312 313 314 317 318 317 314 312 313 314 313 313 312 309 307 308 310 312 311 310 311 311 309 309 309 309 310 310 310 310 309 309 309 308 308 308 308 308 307 307 306 306 305 305 305 304 304 303 303 303 303 303 302 301 300 299 298 298 297 297 297 296 296 295 294 293 292 291 291 290 290
311 312 313 315 316 315 316 317 318 319 319 318 315 312 309 309 310 313 316 318 317 313 309 311 313 313 312 310 307 307 310 313 313 311 310 311 311 309 309 309 309 310 310 310 309 309 309 309 308 308 308 307 307 306 306 305 305 305 304 304 304 303 303 304 304 304 303 302 301 299 298 298 297 297 297 296 296 295 295 294 293 292 291 291 290 290
310 311 311 313 315 315 315 317 317 317 317 317 314 308 306 309 310 313 318 320 316 311 308 310 311 311 311 308 306 308 311 313 313 311 310 311 310 309 309 310 310 310 310 310 309 309 309 309 308 308 307 307 306 306 305 305 305 304 304 304 303 303 303 304 303 302 301 300 299 299 298 298 297 297 296 296 295 295 294 294 293 292 292 291 290 290
309 310 311 313 315 314 315 316 316 316 317 316 310 303 304 310 312 315 319 317 310 306 306 308 309 310 309 307 306 309 310 309 310 311 310 310 309 308 309 310 309 309 309 309 309 309 308 308 307 306 306 305 305 305 305 305 304 304 303 303 303 303 302 302 301 300 299 299 298 298 297 297 297 296 296 295 295 294 294 293 293 292 292 291 291 290
310 310 311 312 313 314 315 315 315 317 317 312 305 302 306 312 316 315 312 307 304 305 306 307 308 309 309 307 307 308 308 308 309 311 310 309 308 309 309 309 308 308 308 307 307 307 307 306 305 305 305 304 304 304 304 303 303 302 302 302 301 301 300 299 298 298 298 298 297 297 297 297 296 296 295 295 294 294 294 293 293 292 292 291 291 290
311 311 311 311 313 314 314 314 316 317 312 305 304 305 308 313 316 311 305 303 304 306 307 307 308 308 308 308 307 307 308 308 309 309 309 308 308 308 308 307 307 307 306 306 306 305 305 304 304 303 303 302 302 302 302 302 301 301 300 300 299 298 297 297 297 297 297 297 297 297 297 296 296 296 295 295 294 294 294 293 293 292 292 291 291 291
311 312 312 312 312 313 314 315 315 314 307 304 307 310 309 311 311 307 305 305 305 306 308 309 308 308 309 308 307 307 307 307 307 307 307 307 306 306 306 306 305 305 304 304 303 302 301 301 300 300 299 299 299 299 299 299 298 298 297 297 296 296 296 296 296 296 296 296 296 296 296 295 295 295 295 294 294 294 293 293 292 292 292 291 291 291
311 310 311 312 312 312 313 312 310 307 304 305 308 309 309 309 308 306 307 307 306 307 308 308 308 308 309 309 307 306 306 306 306 306 307 306 305 305 305 304 303 303 302 301 300 299 299 298 298 297 297 296 296 296 296 296 296 295 295 295 295 295 295 295 294 295 295 294 294 294 294 294 294 294 294 294 294 293 293 293 293 292 292 292 291 291
307 305 307 311 312 311 309 307 304 304 304 305 306 307 308 309 308 305 306 306 307 307 307 306 307 308 308 308 308 306 306 306 306 306 306 306 305 304 303 303 301 300 300 299 298 298 297 297 296 296 296 295 295 295 295 294 294 294 294 294 294 294 294 294 294 294 293 293 293 293 293 293 292 292 293 293 293 293 293 293 293 292 292 292 292 291
306 303 305 310 312 312 311 309 306 304 303 304 304 304 305 307 307 305 306 306 306 306 305 305 306 306 306 307 307 307 307 306 305 305 304 304 303 303 301 301 299 298 298 297 296 296 296 296 295 295 295 295 294 294 294 293 293 293 293 293 293 293 293 293 292 292 292 292 292 291 291 291 291 291 291 291 291 292 292 292 292 292 292 292 292 292
307 305 307 310 310 309 309 305 300 299 300 301 303 303 304 306 306 304 305 305 305 305 305 305 304 305 305 305 305 306 306 305 305 304 303 302 302 301 300 299 297 296 296 296 295 295 295 295 295 294 294 294 294 293 293 293 293 293 293 292 292 292 292 292 292 292 291 291 291 291 291 291 290 290 290 290 290 291 291 291 291 291 291 291 291 291
305 305 307 310 308 306 305 300 297 299 301 301 300 302 303 305 305 304 304 305 304 305 305 304 304 304 304 304 304 304 304 304 304 303 303 302 301 300 298 297 296 296 295 295 295 295 295 294 294 294 293 293 293 293 293 293 293 292 292 292 292 292 292 292 291 291 291 291 291 291 291 291 290 290 290 290 290 290 290 290 290 290 290 290 290 290
304 306 307 307 306 307 307 303 301 305 307 302 300 301 302 303 303 304 304 304 304 304 305 304 304 304 303 303 303 303 304 304 303 303 302 301 299 297 296 296 295 295 295 295 294 294 294 294 293 293 293 293 293 293 293 292 292 292 292 292 292 292 292 292 291 291 291 291 291 291 291 291 291 291 291 291 290 290 290 290 290 290 290 290 290 290
304 306 305 306 307 307 306 303 301 304 307 304 302 302 302 302 302 303 304 304 304 304 304 304 304 303 303 302 302 302 303 303 302 302 300 298 296 296 295 295 295 295 294 294 294 294 294 293 293 293 293 293 293 293 292 292 292 292 292 292 291 291 291 291 291 291 291 291 291 291 291 291 291 291 290 290 290 290 290 290 290 290 290 290 290 290
Wind_Speed
4 3 2 5 7 9 10 10 7 5 6 5 5 4 4 4 5 5 5 6 3 4 6 9 9 12 13 11 13 15 16 20 23 24 27 29 29 31 34 36 37 36 34 29 25 24 22 21 21 19 18 17 17 17 15 15 16 15 17 20 21 22 20 20 23 20 19 20 21 22 18 16 17 17 17 15 12 12 13 11 8 6 6 7 9 9
4 4 7 10 10 9 9 9 5 5 4 3 4 3 3 3 5 7 4 4 2 4 6 7 8 12 12 11 14 12 10 17 26 27 30 33 32 34 36 38 38 36 34 30 27 26 24 24 23 21 20 19 18 17 16 17 17 16 17 18 19 20 21 21 23 23 22 21 20 19 17 16 16 15 14 13 13 14 13 10 8 8 7 8 11 12
2 4 11 12 5 4 4 6 6 4 3 2 3 2 3 3 4 6 4 4 1 4 5 6 7 10 11 11 14 14 15 22 32 32 35 36 35 37 39 38 38 36 36 34 31 29 27 26 25 23 22 19 18 16 16 18 18 18 19 19 19 20 21 20 22 22 20 20 20 19 17 16 16 16 14 14 15 14 11 10 10 9 8 9 12 12
4 6 11 10 7 6 3 3 5 2 1 3 3 3 4 3 2 4 5 4 1 2 3 5 8 8 8 9 11 21 26 25 30 35 37 37 36 38 39 38 39 39 39 38 35 32 30 28 27 25 23 20 19 18 18 18 19 20 20 21 20 20 20 20 20 20 19 21 22 20 17 15 16 17 17 16 15 13 12 13 12 11 11 12 13 13
7 5 4 7 9 8 5 4 6 4 3 5 5 6 5 5 6 6 4 5 3 3 3 4 8 8 7 10 10 15 17 17 27 32 32 37 37 35 34 35 39 40 40 40 38 35 32 31 30 26 23 21 20 20 19 18 20 21 21 21 22 21 20 20 22 21 20 22 23 20 16 17 19 19 18 17 15 15 15 14 13 13 13 12 12 12
9 5 3 6 6 7 7 4 6 7 4 5 5 9 10 8 8 5 3 5 4 5 4 4 5 7 4 8 9 7 3 10 21 22 26 35 34 31 33 35 37 37 39 39 39 37 34 33 31 26 24 23 22 21 20 19 19 20 21 21 22 23 21 21 21 19 20 22 21 18 17 20 22 20 19 18 17 17 16 15 14 15 15 13 12 13
5 5 5 7 6 7 7 5 6 8 5 4 5 9 11 8 5 5 1 1 1 4 3 3 0 7 6 5 8 7 5 10 13 12 20 31 30 29 34 36 36 37 38 39 38 37 35 34 31 28 26 25 23 22 21 21 20 19 21 22 20 21 23 24 21 18 22 24 21 20 19 20 20 19 19 19 18 18 17 16 17 17 16 16 16 17
4 5 4 6 6 6 6 5 6 8 7 4 4 5 8 7 7 6 4 4 3 3 4 3 3 5 10 5 5 8 8 10 13 10 15 23 27 30 32 34 35 37 38 40 40 39 37 35 33 30 28 26 23 23 22 23 23 21 22 24 22 22 22 22 20 19 23 24 22 22 20 18 17 17 18 19 19 18 18 19 20 19 20 20 20 20
4 7 7 7 5 4 6 5 7 10 6 5 3 5 6 6 5 4 5 3 1 3 4 1 4 3 10 5 1 3 6 9 14 12 12 18 23 25 28 31 33 35 37 39 40 40 38 36 34 30 28 26 24 24 24 23 25 23 22 23 25 24 21 20 20 21 23 23 21 20 18 18 18 18 18 19 20 20 21 22 23 23 24 23 22 20
1 5 8 9 6 6 5 2 7 11 5 4 6 7 6 5 4 5 4 3 3 3 5 6 6 3 8 3 3 1 4 9 11 10 11 15 16 17 22 26 29 32 35 36 38 38 38 37 34 29 27 26 25 25 24 23 26 26 25 24 25 25 22 22 23 24 24 24 22 21 21 20 19 19 20 21 24 25 25 26 27 27 25 24 22 20
2 0 3 5 4 5 5 3 2 6 6 8 7 6 7 6 5 4 2 4 2 5 6 9 11 7 6 3 4 3 4 7 8 7 9 12 12 13 15 19 24 29 33 35 36 36 36 36 33 29 28 28 26 26 25 25 27 28 29 28 28 26 25 26 28 27 26 25 24 24 23 21 20 20 23 27 29 29 29 29 28 27 25 23 22 20
4 0 1 3 4 5 7 5 3 3 6 7 5 4 4 4 4 4 4 4 1 6 4 6 9 9 8 6 3 5 6 5 7 6 7 10 11 11 11 14 18 24 30 33 35 36 37 37 34 31 31 30 28 28 28 28 29 29 30 30 29 28 27 27 28 27 26 26 26 26 23 21 21 24 28 30 30 30 30 29 28 27 25 23 22 20
2 4 3 1 4 7 7 4 3 4 3 4 4 6 3 2 2 3 3 0 3 6 3 1 3 5 9 7 6 11 12 10 10 11 12 13 15 16 13 14 16 21 27 31 35 37 39 39 37 34 34 32 31 31 30 31 32 32 31 31 30 29 29 28 28 27 28 28 27 25 22 21 23 27 30 30 29 29 29 27 26 25 23 22 21 19
3 5 1 1 3 9 10 6 3 1 4 6 5 6 5 2 1 3 3 2 4 5 3 0 2 3 6 4 9 15 15 14 13 17 20 20 21 22 19 17 18 21 26 30 34 38 41 41 39 36 35 34 33 32 32 33 34 34 34 34 32 31 30 30 30 29 29 27 25 24 23 24 26 29 30 29 28 27 26 25 23 21 21 20 19 18
5 5 5 7 4 11 13 8 7 6 5 6 4 5 5 5 4 4 4 4 4 4 4 1 2 3 2 3 7 10 13 15 15 16 19 21 22 21 19 18 19 23 26 30 34 38 41 41 40 38 36 35 34 33 34 34 35 36 36 35 33 33 32 31 30 29 28 26 25 25 25 27 28 30 30 29 27 25 24 24 22 20 20 19 17 16
4 6 6 3 2 11 12 6 7 8 3 3 2 4 3 5 5 3 3 5 3 2 3 2 4 4 4 6 8 9 13 15 15 15 16 19 18 16 16 17 20 24 27 31 35 38 41 41 40 38 37 36 35 35 35 35 37 38 38 36 35 34 32 30 30 29 27 27 27 28 28 29 30 31 30 28 27 25 23 23 22 21 20 19 17 16
2 5 5 2 1 5 6 4 5 4 4 2 3 4 4 4 5 2 2 1 3 3 4 3 5 5 3 7 8 7 10 12 12 15 18 20 17 14 15 17 20 24 27 31 34 37 40 42 41 39 38 37 36 36 36 37 38 38 38 38 37 36 32 30 30 30 28 29 30 30 30 30 31 31 29 28 27 26 25 24 23 22 21 20 18 17
4 3 4 1 2 3 0 4 4 3 4 5 4 6 2 2 2 2 2 2 2 4 5 3 6 5 2 6 5 3 5 10 10 10 14 17 16 16 18 17 19 23 26 30 33 36 39 41 41 39 38 37 36 36 36 36 37 38 38 38 38 36 33 31 31 30 30 31 32 32 31 31 32 31 29 28 27 26 26 26 25 24 22 21 19 18
4 2 4 1 3 3 3 4 2 4 2 4 4 5 4 2 1 2 2 3 2 4 5 2 4 5 6 6 4 3 6 9 10 8 9 11 13 17 20 18 19 22 25 30 33 36 39 41 41 40 38 38 37 36 35 35 37 38 39 38 37 35 33 32 31 30 31 33 33 33 32 33 33 32 30 29 28 27 27 27 26 25 23 22 21 20
3 3 4 2 0 1 2 2 4 1 2 4 3 2 2 2 4 4 3 3 3 2 4 3 4 4 7 7 7 11 11 9 10 9 8 10 11 15 19 19 21 23 25 29 32 35 38 40 41 39 38 37 37 37 36 37 38 39 40 39 38 35 33 32 31 31 33 35 34 34 33 34 34 33 32 30 30 29 28 27 26 25 24 23 22 20
2 3 4 2 2 1 2 4 8 10 6 3 4 4 3 1 2 1 1 2 4 3 2 3 6 6 4 4 8 11 10 9 9 8 8 11 11 11 15 17 21 23 25 28 31 34 37 39 40 39 37 37 36 37 37 39 39 39 39 40 38 37 36 34 32 33 35 36 36 36 35 35 34 34 33 32 31 30 29 28 27 25 25 23 22 21
3 3 4 2 1 4 5 5 6 9 8 6 7 8 9 7 4 2 3 2 3 3 4 3 8 9 4 4 6 8 8 7 7 6 9 14 12 9 11 14 18 22 24 26 29 32 35 37 39 39 38 37 37 38 39 40 41 40 40 40 39 38 37 35 33 34 36 36 37 37 36 36 36 35 35 34 32 31 30 29 28 27 26 25 23 22
4 3 3 3 4 5 6 4 2 4 3 3 3 5 6 7 7 6 6 4 3 2 2 3 5 9 3 4 6 6 6 6 7 8 12 17 14 11 12 11 14 19 22 24 27 29 32 34 37 39 39 38 38 39 41 41 42 40 39 39 40 39 37 35 34 34 36 37 37 37 37 37 37 37 36 35 34 33 32 30 29 28 27 26 24 23
4 3 3 2 2 3 4 5 3 1 2 1 1 3 6 9 9 6 4 4 4 5 4 3 6 7 2 1 3 5 7 9 10 10 13 17 16 12 12 11 11 15 20 23 25 27 30 32 36 38 39 39 39 40 41 42 42 41 39 39 40 38 37 35 35 35 36 36 36 37 37 38 38 38 37 37 36 34 33 32 31 30 28 26 25 24
7 4 4 3 1 3 3 3 2 1 1 3 4 5 8 11 8 2 1 3 3 9 10 6 10 8 2 4 3 4 7 9 11 11 10 13 13 10 10 10 10 13 17 23 25 27 29 32 35 37 38 39 39 40 41 42 42 42 41 40 40 38 37 37 36 36 37 37 37 38 39 39 39 39 39 38 37 36 35 33 32 31 29 28 27 26
11 5 7 8 7 8 8 7 7 4 3 3 4 8 10 12 11 7 3 3 7 9 10 10 12 5 1 5 5 5 6 7 10 9 8 9 10 9 10 11 12 14 16 21 25 27 30 31 33 36 37 38 39 40 41 43 43 43 42 41 40 39 39 38 37 38 38 38 38 39 41 41 41 41 41 40 38 37 35 34 33 32 31 30 29 28
4 3 12 15 14 16 14 8 7 10 8 8 10 13 14 14 15 10 6 8 8 4 7 15 16 8 6 6 6 7 8 7 8 7 9 11 11 10 12 13 14 14 15 19 24 27 29 31 33 35 36 38 39 39 40 42 43 43 42 42 41 41 40 39 38 39 39 39 40 40 41 42 42 41 41 40 39 37 36 35 34 34 32 31 30 30
2 4 14 17 19 20 14 7 11 15 15 17 16 16 17 16 15 13 14 15 7 5 11 17 11 11 17 12 10 10 8 7 7 9 13 14 12 12 13 14 15 15 16 19 23 27 30 32 33 34 36 37 38 39 40 41 42 42 42 42 42 42 42 41 40 40 40 40 41 41 41 42 42 41 41 40 39 38 37 37 36 35 34 33 32 31
2 7 12 13 17 18 9 6 12 15 15 16 18 19 19 18 18 20 23 20 11 10 19 14 11 16 23 15 12 13 12 12 13 14 17 16 15 15 15 16 17 17 19 22 24 27 30 32 33 34 36 36 37 38 38 39 40 41 42 42 42 42 42 42 41 41 41 42 42 41 41 42 42 42 41 41 40 39 39 38 38 37 36 35 34 33
3 6 9 11 14 17 10 7 10 13 11 11 16 19 19 20 23 25 25 23 17 17 22 13 8 17 20 11 11 13 17 20 17 16 18 17 18 19 18 18 20 21 23 25 25 27 29 32 33 32 33 33 34 35 36 38 40 41 42 42 42 43 43 42 42 41 42 43 42 41 41 42 43 42 42 41 41 41 41 40 39 38 37 36 35 34
6 6 5 6 9 14 11 7 8 11 11 11 13 14 17 21 23 23 22 19 16 18 22 14 11 18 14 7 7 9 12 14 12 13 17 18 19 19 18 21 23 24 26 27 26 27 28 31 31 30 30 30 30 33 35 37 38 39 41 41 42 42 42 42 42 42 42 42 42 41 41 42 43 43 42 42 41 42 42 41 41 40 39 38 37 36
6 4 2 5 7 12 12 10 9 7 6 8 10 15 21 20 18 18 17 16 15 18 19 14 14 19 11 5 5 7 10 10 10 14 17 18 19 20 21 24 26 27 28 28 27 26 27 28 28 28 28 26 27 30 31 33 36 37 38 39 40 40 40 41 42 42 42 42 41 42 41 41 42 42 42 42 42 43 43 43 43 42 41 41 39 38
7 6 4 6 8 11 10 11 9 6 3 7 13 21 23 17 14 15 15 17 19 18 15 14 18 20 8 5 5 7 7 8 12 18 21 20 20 22 23 26 27 28 28 26 24 23 23 24 23 22 21 21 21 22 23 27 31 32 33 35 37 38 39 40 41 41 42 42 42 42 42 42 43 43 43 43 42 43 44 44 44 44 43 42 40 38
7 9 7 6 7 9 8 9 7 5 9 10 9 13 17 18 18 19 19 21 22 18 14 15 18 16 6 7 9 9 9 13 19 24 24 21 21 23 24 25 25 25 24 20 18 17 17 16 16 15 15 14 13 14 16 20 23 25 29 32 34 36 37 38 39 40 41 41 42 42 42 43 44 43 43 43 43 44 45 45 46 45 44 43 41 40
7 8 6 4 4 5 5 8 5 9 11 7 3 3 11 20 23 22 21 21 19 18 18 19 19 17 9 9 12 14 17 22 24 24 23 22 23 23 23 25 25 21 18 16 15 14 14 13 12 12 11 11 10 11 13 15 16 20 24 27 29 31 33 34 37 38 38 39 40 41 42 43 43 43 43 44 44 45 46 46 46 45 44 44 43 43
10 8 3 2 3 1 4 7 9 5 3 3 4 3 5 11 15 16 16 18 18 19 20 21 23 20 13 12 14 14 15 17 17 19 21 21 23 24 24 25 23 19 17 16 15 14 12 12 11 10 10 11 12 13 14 15 17 19 21 23 25 27 28 31 33 33 33 34 36 38 39 40 42 43 44 44 45 46 45 45 45 45 45 45 45 45
12 10 5 4 5 3 4 7 4 4 5 6 4 3 5 8 12 14 12 16 19 20 19 20 21 19 16 17 18 13 8 7 8 12 18 20 23 25 24 22 18 18 16 13 12 12 11 10 9 9 11 13 14 15 16 17 19 21 22 23 24 25 27 28 29 28 29 30 32 33 35 37 40 41 43 44 44 44 43 43 44 45 46 47 48 48
9 10 9 8 6 4 5 5 3 4 10 9 5 7 10 11 13 13 9 11 13 17 21 20 18 17 17 18 15 10 4 4 7 11 18 22 23 21 18 16 18 17 12 11 13 14 13 12 12 13 14 15 16 17 18 20 21 22 23 24 24 25 26 26 25 25 26 27 28 30 32 34 36 37 38 39 40 41 41 42 43 44 46 48 49 48
7 7 8 8 5 5 7 7 7 8 9 5 7 9 12 14 13 10 3 9 6 13 22 22 17 18 20 17 14 12 6 6 10 13 16 20 20 18 20 22 21 16 13 14 16 16 15 15 15 16 16 17 18 19 19 20 21 22 22 22 22 23 24 23 22 22 23 24 25 27 28 29 30 32 33 35 36 37 38 39 40 42 44 46 48 48
6 4 6 8 7 8 8 7 6 5 5 5 7 7 14 21 19 11 4 10 5 12 24 26 21 23 24 19 15 12 8 11 10 7 9 15 19 23 26 22 17 15 14 15 17 17 17 15 15 16 16 16 16 16 16 17 18 19 19 18 19 21 20 19 18 18 19 20 21 22 24 25 26 28 29 30 31 32 33 35 36 38 40 43 45 47
5 4 5 9 9 9 10 8 4 3 5 4 5 10 20 21 14 8 10 7 5 11 20 24 24 25 23 21 19 14 15 16 9 3 8 18 25 28 25 18 14 13 13 14 16 17 16 15 15 15 14 14 13 13 13 14 15 15 15 16 17 17 15 14 14 14 15 16 17 18 20 21 22 23 24 25 26 28 29 30 32 34 36 38 40 43
6 4 4 7 8 6 7 7 4 4 5 6 10 14 19 14 6 9 6 3 7 12 14 18 22 22 22 25 26 21 17 14 10 8 14 23 27 24 18 14 13 14 13 14 15 15 15 15 15 14 12 12 12 12 12 13 14 14 14 15 15 13 11 11 11 12 12 13 14 15 17 18 18 19 20 22 23 25 26 27 28 30 32 34 36 38
7 6 5 6 6 4 4 6 6 5 5 17 18 9 7 6 4 6 6 4 5 12 14 16 18 18 21 25 25 21 17 15 14 14 16 21 21 17 14 14 13 13 13 14 15 14 13 13 11 11 10 10 10 11 11 12 13 13 13 13 11 10 9 10 11 11 12 13 14 15 16 16 17 17 18 19 20 22 23 24 26 28 29 31 33 35
6 7 5 5 5 5 6 7 5 2 8 25 22 8 11 13 5 6 12 8 6 12 16 15 14 15 19 22 22 21 19 18 18 17 16 18 16 14 15 15 15 15 15 14 14 13 12 11 11 10 9 9 9 10 10 10 11 11 10 9 8 8 10 10 11 12 13 14 15 15 16 16 16 16 17 18 19 20 22 23 24 26 27 28 30 32
6 5 4 4 4 4 3 4 4 2 14 28 20 9 21 28 14 7 15 17 15 18 17 15 16 16 16 19 22 22 20 18 19 17 16 16 16 15 16 17 17 16 16 15 14 13 12 11 10 10 9 9 9 9 9 9 8 7 7 7 7 9 9 10 11 12 12 12 13 13 13 14 14 15 16 17 19 20 21 22 23 24 25 27 28 30
3 4 3 3 2 3 1 3 5 4 12 25 18 7 19 30 21 13 17 19 20 21 17 15 17 18 17 20 22 22 20 18 18 17 16 16 17 17 17 18 17 15 14 13 12 11 11 11 10 10 10 9 9 8 8 7 6 6 6 7 8 8 8 9 10 10 10 10 11 11 12 13 14 15 16 17 18 19 20 20 21 22 24 25 27 28
2 4 4 2 3 5 4 3 5 4 10 21 19 9 13 24 23 18 19 19 20 20 18 16 16 17 18 19 20 20 20 19 18 18 18 18 19 19 18 17 15 14 12 11 11 10 10 10 10 10 10 9 9 8 7 7 7 7 7 8 8 9 9 9 10 10 10 10 11 12 13 14 15 16 17 17 18 18 19 20 21 22 23 24 26 27
4 7 6 3 4 5 3 3 1 1 7 17 19 13 15 23 24 21 19 20 20 19 18 16 14 15 15 15 15 18 19 19 20 20 20 20 19 18 17 15 13 12 12 11 10 10 9 9 9 9 9 9 9 8 8 8 8 8 8 9 9 9 9 10 10 10 11 11 12 13 14 15 15 16 17 18 18 19 20 20 21 22 23 24 25 26
7 8 6 4 3 2 3 3 0 3 2 12 19 18 19 23 25 22 20 21 23 21 18 16 14 12 11 11 13 15 18 20 20 20 21 21 20 18 16 15 13 12 11 10 9 9 9 9 10 10 10 10 9 8 9 9 9 9 9 9 10 10 10 11 11 12 12 13 13 14 14 15 15 16 16 17 18 19 20 21 22 23 24 24 25 26
7 6 4 4 5 5 6 8 10 5 2 11 21 22 21 24 25 24 24 26 24 21 19 18 16 12 11 11 12 14 17 20 21 20 20 20 20 18 17 14 13 12 11 11 11 11 11 11 11 11 11 10 10 10 10 10 10 10 11 11 12 12 12 13 13 14 14 15 15 15 16 16 17 18 18 19 20 20 21 22 23 24 25 25 26 27
8 7 7 7 6 7 8 14 20 11 2 10 25 27 25 26 27 27 28 27 23 20 18 17 17 17 14 13 13 14 16 18 20 20 20 20 19 18 15 13 12 11 11 11 11 11 11 12 12 11 11 11 12 11 11 11 12 12 13 14 14 15 15 16 16 17 17 17 18 18 18 19 20 20 21 22 23 24 25 26 26 27 28 28 28 28
Wind_Direction
148 152 172 198 210 206 202 197 195 164 135 129 134 158 195 212 267 248 251 277 185 171 242 226 228 246 252 258 259 245 222 222 233 238 239 237 235 234 234 236 236 236 237 233 228 228 228 228 228 229 226 222 222 221 216 209 210 211 197 195 199 195 195 199 200 203 204 206 208 211 215 213 219 233 224 207 205 204 191 183 180 184 197 176 171 174
139 186 221 220 216 204 201 199 174 128 131 117 132 189 247 214 256 254 247 289 169 167 260 250 241 255 252 256 262 244 206 224 232 231 237 237 234 235 235 236 235 234 234 230 226 225 223 224 225 225 224 220 222 222 214 207 206 205 195 195 199 195 195 201 204 206 207 208 206 210 215 211 217 218 199 191 191 186 177 176 184 192 192 174 172 172
174 227 236 227 194 134 172 192 181 172 158 128 128 158 257 242 272 281 281 315 132 176 264 284 265 259 254 255 257 238 219 234 239 236 240 240 233 233 234 233 232 231 231 228 225 223 221 222 222 222 224 220 219 221 215 209 203 198 196 195 194 194 197 197 200 202 203 206 203 204 208 212 220 214 197 191 185 179 175 180 187 189 181 163 163 164
200 242 243 217 158 135 160 158 150 157 173 186 164 159 237 244 259 277 290 328 11 214 265 296 284 270 258 256 254 244 237 240 247 247 248 245 239 238 238 235 233 230 229 226 223 221 219 220 221 220 222 219 215 215 213 208 201 196 197 196 194 196 197 194 196 199 204 210 206 200 203 207 207 202 193 187 183 182 181 186 188 183 176 167 167 169
217 238 236 174 164 170 160 121 139 160 239 236 200 189 220 232 217 228 292 330 338 330 349 337 298 275 241 239 246 249 243 242 249 249 249 249 245 243 241 238 236 234 231 228 224 221 219 220 221 219 219 218 217 215 212 206 200 199 198 196 199 199 196 199 201 203 212 212 201 192 192 193 191 188 184 185 189 186 185 193 191 178 176 176 176 175
242 235 127 126 159 169 158 165 175 174 211 268 227 203 215 223 225 241 334 1 354 325 342 20 306 280 244 233 247 265 263 244 247 245 245 248 247 240 237 236 235 234 233 231 228 224 221 221 221 218 217 218 218 213 208 204 199 200 198 195 201 200 198 203 201 203 208 201 196 201 203 194 189 185 184 190 197 196 199 204 189 177 179 181 176 166
240 213 130 123 151 161 172 207 210 178 170 263 244 207 213 213 225 248 214 71 289 261 293 52 247 278 281 231 233 240 244 253 252 244 244 248 246 240 237 237 234 232 230 227 226 224 221 221 221 219 218 218 219 210 203 199 196 199 199 196 199 200 202 202 196 200 202 195 200 212 208 201 200 201 198 199 207 213 214 199 182 178 176 169 164 158
186 183 126 115 131 148 178 214 215 173 153 236 250 182 187 193 209 220 180 191 236 260 315 45 110 278 283 260 223 209 219 259 263 255 252 248 245 241 239 237 234 233 231 226 223 220 220 222 223 222 220 219 216 208 202 197 194 197 197 197 199 196 198 198 194 198 199 194 195 196 197 204 214 220 218 215 214 211 200 183 175 174 166 159 159 156
156 179 182 160 147 169 195 213 186 158 158 246 223 131 148 165 179 166 146 186 297 3 299 238 126 256 275 278 26 191 209 250 260 256 258 254 248 245 243 239 236 235 233 229 226 222 219 221 222 221 219 218 211 205 204 198 193 195 194 197 199 191 191 199 200 199 195 193 196 201 213 219 218 222 225 219 204 188 179 174 170 166 161 159 160 160
123 193 194 170 170 200 203 226 170 162 182 200 132 93 79 79 81 88 116 125 55 318 246 200 162 233 269 239 109 90 217 236 254 255 257 263 261 255 250 245 238 234 232 229 228 224 220 220 220 218 216 215 209 203 205 199 194 196 194 193 195 192 196 204 204 201 200 203 210 220 228 227 221 219 214 200 183 174 172 171 167 165 164 163 164 164
321 74 181 177 192 184 140 69 144 164 155 134 108 65 50 35 36 49 49 80 55 278 236 192 183 192 269 268 166 198 219 219 238 256 268 273 268 259 256 248 239 234 231 227 224 220 218 218 217 215 213 212 207 201 202 199 195 196 197 196 196 198 202 204 200 200 204 209 216 223 229 230 224 211 196 183 173 170 171 171 168 167 168 167 167 167
324 25 215 211 185 138 105 71 33 87 131 121 87 83 75 351 8 21 356 50 191 260 245 201 188 186 234 258 223 245 263 241 225 236 261 272 272 266 258 249 240 235 231 225 220 216 213 212 212 212 210 208 206 202 200 199 196 196 198 198 197 196 198 200 200 200 207 214 220 226 229 226 215 199 187 178 172 170 171 172 172 171 171 171 170 170
273 235 269 305 188 162 124 86 40 33 112 120 98 115 115 322 357 349 313 70 226 255 287 234 166 204 240 253 260 261 263 251 231 232 243 254 268 273 269 259 244 233 229 223 218 214 211 210 210 210 209 207 207 205 202 199 197 198 199 198 199 199 198 201 206 210 217 221 224 225 219 209 201 193 185 178 173 172 173 176 176 175 175 175 174 174
254 292 296 103 236 192 166 155 167 192 176 165 146 146 153 156 193 268 263 263 260 268 306 272 167 249 274 271 247 247 256 262 255 252 254 257 264 271 273 266 249 234 228 223 218 214 212 211 210 211 210 210 209 206 203 200 198 200 201 200 203 207 207 209 213 217 220 220 219 216 205 195 191 189 185 180 178 176 177 180 181 180 180 180 179 178
217 286 202 180 203 185 184 187 166 136 158 184 155 143 160 160 173 210 213 227 257 286 304 280 191 206 221 254 239 243 268 279 271 261 261 263 265 270 270 260 244 232 225 220 217 215 213 212 211 211 212 213 212 208 205 202 200 201 203 203 204 207 209 212 215 216 215 213 210 203 193 188 189 188 185 183 182 182 181 183 184 184 183 183 184 182
203 270 235 219 162 168 182 187 128 107 137 221 116 121 183 182 170 194 200 181 179 294 291 226 224 218 211 264 268 262 272 275 271 267 263 263 266 268 261 249 238 229 223 219 217 215 214 211 211 212 213 214 214 211 207 203 202 203 204 205 207 209 212 214 213 213 210 207 202 193 186 186 189 189 188 185 186 186 186 186 187 187 186 188 189 188
169 277 283 346 32 177 185 166 136 142 176 165 136 174 200 167 151 178 267 101 103 273 268 195 245 290 307 280 278 271 271 272 272 267 261 260 261 259 252 243 236 230 223 220 218 216 214 211 212 213 214 215 215 213 210 206 206 206 205 205 207 209 212 213 211 210 207 202 196 189 185 187 190 191 191 189 189 189 188 188 190 192 193 193 194 194
166 257 293 96 187 261 26 111 81 49 124 127 181 198 154 78 99 119 259 330 55 262 270 205 240 277 282 273 305 353 290 278 270 263 263 261 252 246 246 241 237 232 225 222 219 217 215 213 213 213 214 216 217 217 214 209 209 209 206 205 206 209 209 208 209 208 204 199 194 189 187 189 192 194 195 194 194 193 192 192 194 197 199 198 197 198
156 232 297 68 187 285 28 114 84 8 67 121 176 179 125 130 200 125 180 229 200 251 279 275 258 249 205 223 268 267 260 267 271 275 275 262 242 239 243 238 233 231 225 222 219 217 216 214 214 214 214 216 217 218 215 211 210 209 207 206 207 210 209 207 208 207 202 198 194 191 189 191 194 196 197 197 198 198 197 198 199 200 201 201 200 200
150 201 269 337 294 323 21 166 182 206 17 46 84 143 105 141 177 165 169 173 164 231 280 307 300 253 219 206 202 220 232 238 254 270 272 263 250 243 244 239 233 231 229 226 222 219 218 216 215 215 215 217 217 216 215 212 211 210 208 207 207 209 210 209 209 205 202 199 196 194 193 194 196 198 200 201 201 203 202 203 204 204 204 205 204 203
132 202 238 318 337 183 193 210 188 179 175 152 154 174 189 132 103 153 205 130 131 167 223 279 285 268 244 208 191 209 224 219 227 245 265 275 273 257 251 246 240 236 234 231 226 221 219 216 215 215 216 218 218 216 215 214 214 213 209 207 207 207 208 209 208 205 203 201 198 197 196 197 198 200 203 204 205 206 206 206 208 208 208 208 207 206
171 190 184 170 217 207 227 244 204 192 189 182 189 191 185 170 137 157 236 197 137 183 181 193 269 269 236 189 198 210 216 213 217 226 260 278 282 275 265 255 248 243 237 235 230 224 221 218 216 215 215 217 217 216 216 215 215 215 212 208 207 207 208 210 209 206 204 204 203 200 199 200 201 203 205 207 207 208 209 210 210 211 212 211 209 208
149 117 147 186 215 220 242 267 230 206 181 144 200 201 176 175 171 174 215 208 157 216 172 129 269 275 244 177 200 220 233 241 244 238 256 276 287 288 276 261 251 247 240 236 233 228 225 221 218 217 217 218 218 217 217 215 215 216 215 211 210 210 210 212 212 209 208 208 207 204 203 203 205 207 208 209 210 210 211 212 212 213 214 212 210 210
120 125 180 227 316 311 306 320 343 42 111 122 231 177 168 198 198 184 202 182 167 208 172 136 254 265 304 223 218 260 280 276 265 251 256 276 289 290 278 264 250 245 240 235 232 229 226 222 219 219 218 219 219 218 218 217 216 217 217 215 213 213 214 214 215 213 211 212 212 209 207 207 208 210 211 212 213 213 213 214 214 215 214 212 212 213
168 184 176 167 297 318 326 304 280 254 162 208 222 196 197 205 191 160 73 117 204 216 177 184 243 239 277 311 297 291 291 283 269 254 250 271 287 292 283 271 251 240 238 235 230 226 224 223 221 221 220 221 221 220 219 218 217 217 217 216 216 216 217 217 217 215 213 214 214 213 212 210 211 212 214 215 216 215 215 215 216 216 215 214 215 215
175 184 173 182 216 226 224 223 210 185 165 204 212 198 205 204 186 187 199 184 229 216 171 200 239 233 318 296 285 278 278 279 267 247 234 259 280 287 286 279 258 241 236 235 232 227 224 224 224 223 222 222 222 221 220 219 218 217 217 217 218 218 219 219 219 217 216 216 216 216 215 214 214 215 216 217 218 217 217 218 218 218 217 217 217 218
156 195 191 196 209 218 226 220 154 132 154 203 209 195 201 205 197 196 209 213 219 181 185 222 231 242 261 243 238 250 243 249 261 248 241 253 265 272 277 279 269 251 240 236 234 231 227 225 225 225 224 223 223 222 222 221 220 219 218 218 218 220 221 222 221 220 218 218 219 219 218 218 218 218 218 219 220 220 220 220 220 221 220 220 220 221
105 216 207 211 218 224 229 198 148 148 175 200 202 197 202 202 194 197 215 218 186 140 234 233 211 237 251 227 212 236 235 237 250 244 244 249 254 263 268 269 266 255 243 236 234 233 231 228 227 225 224 224 224 223 223 223 222 221 220 219 219 220 222 223 223 222 220 220 221 222 222 222 221 220 221 221 222 222 223 223 223 223 222 222 223 224
150 217 214 217 228 236 230 163 165 174 185 197 198 199 202 197 192 202 217 218 184 192 240 232 170 221 246 233 215 226 227 231 236 237 244 250 254 259 261 258 258 254 246 240 237 236 234 231 228 225 225 224 225 225 224 224 224 223 222 222 221 222 224 225 225 223 222 223 223 224 224 224 224 223 223 223 223 224 225 225 225 224 224 224 225 226
180 223 219 206 223 237 224 169 181 190 188 199 204 203 200 197 199 206 216 217 205 218 241 237 203 237 246 230 218 223 225 234 239 239 242 246 249 252 251 251 253 251 249 248 245 239 235 232 229 227 227 227 227 227 226 226 226 225 224 224 223 225 226 227 227 226 225 226 226 226 227 227 227 226 225 225 225 226 227 227 227 227 226 226 226 227
186 219 216 177 214 238 223 188 192 196 195 205 210 211 209 204 204 209 216 217 212 228 241 243 254 258 245 199 201 205 205 218 224 223 228 233 240 241 242 248 251 251 252 252 247 239 233 230 230 230 230 229 228 227 226 226 228 227 227 226 226 227 228 229 230 229 229 229 229 229 230 230 230 229 228 228 228 228 229 229 229 229 228 228 228 227
192 209 149 141 210 234 216 194 189 181 193 216 222 221 215 207 204 208 214 212 205 220 235 238 248 252 240 148 163 182 181 194 203 210 218 225 231 233 239 247 250 252 253 250 242 235 232 231 232 232 231 230 229 227 227 228 230 230 231 231 230 231 231 232 232 233 233 234 233 234 234 234 234 233 232 231 231 231 231 231 231 231 230 229 229 229
186 196 186 173 212 235 216 185 166 143 174 226 232 226 215 201 198 205 213 216 208 209 219 222 234 244 231 137 185 205 188 200 212 214 219 224 228 232 240 247 251 253 252 248 240 235 235 234 234 233 231 229 228 229 229 231 232 234 236 235 235 235 235 236 236 236 237 238 238 238 238 238 238 236 235 234 234 234 233 232 233 232 232 231 231 231
186 199 203 185 211 235 203 154 139 174 210 221 233 227 206 189 193 204 211 215 211 209 217 226 238 246 214 163 206 215 206 221 230 230 232 234 235 238 243 245 248 249 248 243 235 231 228 226 224 222 220 219 221 225 230 232 235 239 240 240 239 240 240 241 240 240 241 242 243 243 241 241 240 239 238 238 237 236 235 234 234 234 234 233 233 233
189 200 201 181 212 227 156 134 171 215 220 232 304 260 196 187 194 205 216 220 213 211 224 235 243 245 224 198 213 218 224 234 240 241 239 237 239 243 245 245 244 238 227 214 203 200 199 196 195 194 191 191 198 209 218 223 228 234 238 240 241 242 243 244 243 244 245 247 247 246 244 244 244 242 242 240 239 239 237 236 236 235 236 236 236 237
185 194 196 172 189 166 135 180 209 232 268 290 316 306 193 179 186 201 225 234 220 210 218 228 237 241 235 223 222 225 234 242 246 244 236 234 238 238 240 246 239 214 192 183 180 178 176 175 174 174 176 182 191 201 207 211 218 226 231 235 238 240 242 244 245 246 247 249 249 249 248 248 247 245 243 242 241 241 240 239 239 238 238 238 239 239
184 187 190 197 198 176 186 209 231 338 307 258 249 224 169 159 173 186 215 237 223 212 214 222 234 241 241 239 234 226 233 255 265 251 234 230 234 233 238 244 223 187 171 171 174 172 169 172 174 177 185 193 200 206 210 212 215 220 224 227 230 233 236 239 241 242 244 247 248 249 250 249 248 247 246 246 246 246 246 245 243 241 240 240 240 240
195 190 188 200 206 176 192 221 236 257 249 237 215 194 182 178 176 171 199 243 225 207 210 219 230 234 238 242 227 193 183 267 275 254 231 225 229 230 224 209 186 174 175 182 182 182 183 186 188 191 197 202 206 208 208 209 212 215 219 221 224 228 232 235 238 240 242 245 247 249 250 251 251 252 252 253 253 254 253 250 247 245 244 244 244 244
218 209 192 199 204 179 196 216 208 223 244 223 186 185 175 166 146 120 183 251 220 187 200 209 219 225 230 229 195 156 150 239 253 252 231 222 223 212 189 178 178 185 194 194 191 192 194 195 195 199 204 206 204 201 200 203 209 214 219 222 225 229 233 236 240 243 246 250 252 253 255 256 257 258 258 258 259 259 258 256 254 251 249 248 248 248
212 209 193 204 209 197 203 216 215 235 253 206 192 184 157 148 134 115 213 247 219 180 192 198 207 220 222 208 174 159 191 223 240 261 225 213 207 189 178 181 191 201 204 202 201 201 202 205 207 209 208 202 198 197 200 206 211 216 221 224 227 232 236 241 247 252 255 259 260 260 261 260 261 261 261 262 263 263 263 261 258 256 254 253 252 251
196 195 193 206 213 205 205 219 239 265 244 209 181 160 145 136 137 174 214 226 196 190 196 197 206 215 209 188 176 190 213 217 227 252 196 194 187 179 181 194 204 204 204 203 202 201 202 201 198 198 198 197 199 206 211 214 217 219 222 224 228 235 242 249 255 258 259 260 259 260 260 261 261 263 264 265 266 265 264 263 261 260 259 258 256 255
184 188 193 204 209 204 208 218 237 260 228 157 138 155 155 145 176 216 203 126 164 189 196 199 205 210 202 192 193 202 208 205 210 211 194 187 183 183 192 202 197 192 188 183 185 189 190 189 188 190 196 200 205 210 213 216 219 220 222 228 235 243 247 249 248 248 249 251 252 254 256 258 260 261 263 264 264 263 263 263 263 262 262 261 260 258
178 175 191 200 189 175 203 202 207 255 194 141 132 144 184 187 199 176 138 91 171 184 183 190 200 202 198 195 197 198 193 184 183 183 178 179 182 185 189 184 179 182 180 178 182 183 182 187 188 190 196 202 205 210 214 218 221 223 229 236 241 239 234 230 230 230 233 236 239 242 246 249 252 255 257 258 258 260 261 261 261 261 261 261 261 260
183 181 193 203 185 175 201 203 203 269 160 154 150 161 202 205 210 151 157 160 172 178 176 177 185 191 193 191 186 183 180 173 168 164 163 167 170 170 170 169 171 177 177 177 178 176 177 186 189 189 198 205 207 213 217 219 222 227 231 232 225 217 216 218 219 223 227 229 232 235 239 243 246 248 250 251 253 255 257 258 258 259 260 260 259 259
208 197 179 186 191 184 193 194 189 174 168 170 170 178 193 199 212 196 178 173 167 173 174 167 167 171 180 186 181 174 173 171 168 168 170 171 170 170 170 171 172 176 176 175 176 177 182 189 193 196 203 206 209 214 216 216 219 221 216 209 207 211 216 220 224 229 231 233 235 239 241 244 247 248 249 249 251 253 254 256 257 257 257 257 257 257
230 217 179 164 198 227 227 155 158 180 184 184 188 197 194 199 205 199 184 174 165 167 164 156 158 160 168 181 181 175 175 176 173 173 174 175 175 175 174 174 173 175 177 177 178 181 184 188 192 195 198 202 205 206 204 204 205 201 199 205 213 219 225 230 235 239 240 243 247 249 251 253 254 254 254 254 255 256 256 256 257 256 256 256 255 256
261 202 188 160 167 199 224 171 153 192 203 197 201 206 193 196 198 191 180 171 162 160 156 151 152 154 162 175 182 181 180 178 176 174 174 175 177 176 174 175 174 173 174 174 174 176 180 184 188 191 194 196 195 194 193 193 195 199 206 215 222 227 232 237 243 249 252 256 258 258 259 261 261 261 261 261 261 261 259 258 258 256 256 255 255 255
192 170 173 195 181 179 229 283 300 280 215 204 206 205 193 192 192 187 179 169 158 154 152 150 152 156 161 169 178 180 177 176 177 176 175 177 179 178 176 175 173 172 172 172 174 178 180 184 185 184 186 186 186 187 188 188 196 206 212 218 225 230 236 241 247 252 254 256 258 259 261 263 263 263 264 264 264 263 263 262 262 262 262 263 263 262
134 151 167 175 161 165 275 261 180 28 272 218 213 209 199 193 190 184 177 167 159 156 155 152 154 163 170 174 179 179 176 176 180 180 178 179 180 178 177 175 173 175 176 176 178 181 183 186 187 184 183 184 187 190 191 194 203 211 214 221 227 232 238 243 247 250 253 254 257 260 261 263 265 266 267 268 268 267 267 267 267 268 269 270 269 269
142 170 178 141 153 210 238 197 172 159 268 219 210 205 197 189 185 179 172 166 163 163 163 161 163 171 180 184 186 186 182 179 179 182 182 181 179 178 178 177 175 176 177 178 182 184 185 188 190 187 188 194 198 198 199 202 208 213 218 224 229 234 240 243 247 250 253 255 258 260 262 264 266 268 270 271 272 273 274 274 274 275 275 275 274 274
180 177 171 164 184 218 216 188 183 189 244 206 199 196 189 184 181 176 170 168 168 168 168 171 174 176 179 181 182 186 188 183 180 182 182 179 177 176 175 174 175 176 178 181 184 186 189 194 197 198 201 207 210 209 208 211 215 219 223 225 230 235 239 243 247 250 252 255 258 260 262 265 266 268 270 271 272 273 274 275 276 276 277 278 278 278